Location: Maiden
(35.5760°N, 81.2120°W)
Time: 23:20:11
(UTC-04:00)

ISS - Visible Passes

Search period start: 28 March 2017 00:00
Search period end: 07 April 2017 00:00
Orbit: 399 x 409 km, 51.6° (Epoch: 29 March)

Date Brightness Start Highest point End Pass type
(mag) Time Alt. Az. Time Alt. Az. Time Alt. Az.
28 Mar -2.0 21:07:13 10° W 21:10:10 31° NW 21:12:44 12° NNE visible
29 Mar -3.3 20:14:31 10° WSW 20:17:44 61° NW 20:20:57 10° NE visible
29 Mar -0.6 21:54:02 10° NW 21:54:45 11° NNW 21:55:29 10° N visible
30 Mar -0.9 21:00:01 10° WNW 21:02:06 16° NNW 21:04:12 10° NNE visible
